Terminal Aerodrome Forecast
Issued by NWS

Home | Current Version | Previous Version | Text Only | Print | Product List | Glossary On
Versions: 1 2 3 4 5 6 7 8 9 10 11 12 13 14 15 16
000
FTUS42 TJSJ 230300 AAA
TAFKPK
TAF AMD
TKPK 230330Z 2304/2324 10005KT P6SM VCTS FEW018CB OVC050
      TEMPO 2304/2307 -SHRA SCT018 BKN030
     FM231200 11008KT P6SM VCSH FEW020 BKN070
     FM232100 08006KT P6SM FEW022 SCT070=

USA.gov is the U.S. government's official web portal to all federal, state and local government web resources and services.